TimeCST,TemperatureF,Dew PointF,Humidity,Sea Level PressureIn,VisibilityMPH,Wind Direction,Wind SpeedMPH,Gust SpeedMPH,PrecipitationIn,Events,Conditions,WindDirDegrees,DateUTC
12:16 AM,5.0,-0.4,78,30.34,1.2,Calm,Calm,-,N/A,,Haze,0,2013-03-07 06:16:00
12:18 AM,5.0,1.4,85,30.34,3.0,Calm,Calm,-,N/A,,Overcast,0,2013-03-07 06:18:00
12:23 AM,3.2,-0.4,85,30.34,1.8,Calm,Calm,-,N/A,,Overcast,0,2013-03-07 06:23:00
12:33 AM,3.2,-0.4,85,30.34,4.0,Calm,Calm,-,N/A,,Haze,0,2013-03-07 06:33:00
12:53 AM,1.9,-2.0,83,30.41,3.0,Calm,Calm,-,N/A,,Overcast,0,2013-03-07 06:53:00
12:58 AM,1.4,-2.2,85,30.35,1.8,Calm,Calm,-,N/A,,Overcast,0,2013-03-07 06:58:00
1:07 AM,3.2,-0.4,85,30.35,0.2,Calm,Calm,-,N/A,Fog,Light Freezing Fog,0,2013-03-07 07:07:00
1:53 AM,1.0,-2.0,87,30.41,0.2,Calm,Calm,-,N/A,Fog,Light Freezing Fog,0,2013-03-07 07:53:00
2:53 AM,1.9,-0.9,88,30.39,0.2,Calm,Calm,-,N/A,Fog,Light Freezing Fog,0,2013-03-07 08:53:00
3:53 AM,1.0,-2.9,83,30.40,0.2,Calm,Calm,-,N/A,Fog,Light Freezing Fog,0,2013-03-07 09:53:00
4:53 AM,-0.0,-5.1,79,30.40,0.2,Calm,Calm,-,N/A,,Haze,0,2013-03-07 10:53:00
5:53 AM,1.0,-5.1,75,30.42,0.2,Calm,Calm,-,N/A,,Haze,0,2013-03-07 11:53:00
6:30 AM,-0.4,-5.8,78,30.35,0.5,Calm,Calm,-,N/A,,Haze,0,2013-03-07 12:30:00
6:37 AM,-0.4,-5.8,78,30.35,0.2,Calm,Calm,-,N/A,,Haze,0,2013-03-07 12:37:00
6:53 AM,-0.9,-6.0,79,30.42,0.2,Calm,Calm,-,N/A,,Haze,0,2013-03-07 12:53:00
7:53 AM,1.9,-2.9,80,30.42,0.2,Calm,Calm,-,N/A,,Haze,0,2013-03-07 13:53:00
8:18 AM,5.0,1.4,85,30.35,1.0,Calm,Calm,-,N/A,,Mist,0,2013-03-07 14:18:00
8:24 AM,6.8,-0.4,72,30.35,2.0,Calm,Calm,-,N/A,,Haze,0,2013-03-07 14:24:00
8:53 AM,6.1,1.0,80,30.42,2.0,Calm,Calm,-,N/A,,Haze,0,2013-03-07 14:53:00
9:15 AM,6.8,5.0,92,30.35,3.0,Calm,Calm,-,N/A,,Clear,0,2013-03-07 15:15:00
9:53 AM,15.1,10.0,80,30.41,5.0,SSE,9.2,-,N/A,,Haze,150,2013-03-07 15:53:00
10:53 AM,17.1,10.9,77,30.41,6.0,SSE,6.9,-,N/A,,Haze,150,2013-03-07 16:53:00
11:53 AM,19.0,12.9,77,30.40,7.0,SE,6.9,-,N/A,,Clear,140,2013-03-07 17:53:00
12:53 PM,21.0,15.1,78,30.40,8.0,SE,9.2,-,N/A,,Clear,140,2013-03-07 18:53:00
1:53 PM,21.9,17.1,82,30.37,7.0,SE,10.4,-,N/A,,Clear,140,2013-03-07 19:53:00
2:53 PM,23.0,17.1,78,30.36,8.0,SE,12.7,-,N/A,,Clear,130,2013-03-07 20:53:00
3:53 PM,24.1,17.1,75,30.35,8.0,SE,11.5,-,N/A,,Clear,130,2013-03-07 21:53:00
4:53 PM,24.1,17.1,75,30.35,7.0,ESE,11.5,-,N/A,,Clear,120,2013-03-07 22:53:00
5:53 PM,24.1,17.1,75,30.34,8.0,ESE,11.5,-,N/A,,Clear,120,2013-03-07 23:53:00
6:53 PM,21.9,16.0,78,30.36,8.0,SE,11.5,-,N/A,,Clear,130,2013-03-08 00:53:00
7:53 PM,19.9,16.0,85,30.34,8.0,SE,16.1,-,N/A,,Clear,130,2013-03-08 01:53:00
8:53 PM,19.9,16.0,85,30.34,7.0,SE,12.7,-,N/A,,Clear,140,2013-03-08 02:53:00
9:53 PM,19.0,15.1,85,30.35,6.0,SE,13.8,-,N/A,,Clear,140,2013-03-08 03:53:00
10:53 PM,18.0,14.0,84,30.35,5.0,SE,11.5,-,N/A,,Clear,140,2013-03-08 04:53:00
11:53 PM,17.1,14.0,88,30.35,5.0,SSE,10.4,-,N/A,,Clear,150,2013-03-08 05:53:00